Location: *
(44.7667°N, 12.1333°E)
Time: 13:26:45
(UTC+00:00)

Daily predictions for brighter satellites

Satellite Brightness Start Highest point End
(mag) Time Altitude Azimuth Time Altitude Azimuth Time Altitude Azimuth
ATLAS 3B R/B 4.3 16:41:55 10° ESE 16:43:50 11° ESE 16:45:43 10° E
Unknown 2.8 16:42:36 10° NW 16:45:44 82° NE 16:48:52 10° ESE
CZ-4 R/B 2.2 16:45:37 10° SE 16:49:22 33° ENE 16:53:10 10° N
ATLAS 5 CENTAUR R/B 3.6 16:46:13 10° W 16:49:52 25° NW 16:53:55 10° NNE
FALCON 9 DEB 4.1 16:48:07 10° NW 16:51:19 33° NNE 16:54:32 10° E
CENTAUR R/B 4.0 16:49:23 10° SE 16:51:48 13° ESE 16:54:19 10° ENE
COSMO-SKYMED 1 3.0 16:52:23 10° NNE 16:56:31 41° E 17:00:36 10° S
Gbstr 26 Del rocket 4.1 16:51:18 10° WNW 16:57:06 68° NNE 17:04:14 10° ESE
Meteor 1-16 Rocket 4.1 16:52:53 10° S 16:58:24 84° E 17:03:48 10° NNE
Envisat 3.0 16:54:08 10° SSE 16:59:09 63° ENE 17:04:11 10° N
Cosmos 1726 2.0 16:56:59 10° S 17:00:37 74° E 17:04:16 10° NNE
Cosmos 1908 3.4 16:57:25 10° SSE 17:01:10 48° E 17:04:56 10° NNE
Cosmos 2278 Rocket 2.3 16:56:13 10° S 17:01:44 57° ESE 17:07:18 10° NNE
EO 1 Delta rocket 4.4 16:58:27 10° SE 17:02:39 36° ENE 17:07:17 10° N
Okean-O 2.8 16:58:46 10° S 17:03:11 78° WSW 17:07:38 10° NNW
Cosmos 1953 Rocket 4.2 16:59:43 10° NNW 17:04:01 60° W 17:08:16 10° S
Falcon 9 debris 3.7 17:02:54 10° NW 17:06:12 41° NNE 17:08:54 14° E
BREEZE-M DEB (TANK) 3.2 17:00:35 10° SW 17:06:15 47° SSE 17:08:20 15° E
Unknown 4.0 17:03:14 10° NW 17:06:31 36° NNE 17:09:07 14° E
FengYun 1-2 T 4.3 17:02:26 10° SSE 17:07:58 62° ENE 17:13:30 10° N
Cosmos 1356 3.5 17:05:31 10° SSW 17:08:57 80° WNW 17:12:25 10° N
Meteor 1-11 4.3 17:03:35 10° N 17:09:21 69° ENE 17:15:08 10° SSE
Cosmos 1953 4.3 17:06:48 10° SW 17:10:29 33° WNW 17:14:12 10° N
Cosmos 1605 Rocket 4.0 17:04:31 10° N 17:10:39 62° ENE 17:16:41 10° SSE
Cosmos 1934 Rocket 4.1 17:07:15 10° N 17:13:38 85° W 17:20:01 10° S
CSL-04 Rocket 3.8 17:08:59 10° SE 17:14:21 54° ENE 17:19:41 10° N
USA 238 DEB 3.8 17:10:16 10° SSW 17:16:43 54° ESE 17:23:23 10° NE
USA 238 3.8 17:10:23 10° SSW 17:16:49 54° ESE 17:23:29 10° NE
Meteor 2-10 4.1 17:14:57 10° SSW 17:20:00 80° W 17:25:04 10° N
SKYMED 3 4.5 17:16:11 10° NNE 17:20:33 74° ESE 17:24:53 10° S
COBE Rocket 4.1 17:15:27 10° N 17:20:38 85° WNW 17:25:40 10° SSW
CZ-4 R/B 4.3 17:17:07 10° SSE 17:21:12 76° ENE 17:25:20 10° N
Cosmos 1727 Rocket 4.1 17:16:32 10° SSE 17:22:25 48° E 17:28:18 10° NNE
Cosmos 1076 Rocket 4.2 17:19:49 10° N 17:23:47 33° ENE 17:27:42 10° SE
Unknown 3.5 17:24:53 10° NW 17:28:19 50° NNE 17:30:03 25° E
Cosmos 44 4.2 17:24:56 10° S 17:29:09 28° ESE 17:31:18 20° ENE
YAOGAN 6 2.5 17:26:41 10° SSE 17:30:20 89° ENE 17:33:58 10° NNW
NOAA 11 4.4 17:26:41 10° SE 17:31:51 46° ENE 17:37:01 10° N
Cosmos 1812 Rocket 3.7 17:29:40 10° S 17:33:57 51° E 17:38:18 10° NNE
Cosmos 2058 3.7 17:31:09 10° NNE 17:34:55 30° ENE 17:36:43 22° ESE
Cosmos 1833 Rocket 2.6 17:29:26 10° NNW 17:35:05 87° ENE 17:40:43 10° SSE
NOSS 3-2 (A) 3.4 17:34:16 10° SSW 17:39:53 62° ESE 17:46:14 10° NE
Cosmos 967 Rocket 4.5 17:33:37 10° NNW 17:40:05 71° NE 17:46:27 10° SE
Ariane Rocket 3.3 17:37:01 10° SE 17:41:51 45° ENE 17:46:42 10° N
YAOGAN 1 2.6 17:40:10 10° SSE 17:44:29 84° WSW 17:48:51 10° NNW
SKYMED 2 4.1 17:40:19 10° N 17:44:37 62° WNW 17:48:53 10° SSW
NOSS 3-3 (A) 4.5 17:42:00 10° NW 17:49:31 74° NE 17:56:47 14° SE
NOSS 3-3 (C) 4.5 17:42:06 10° NW 17:49:37 74° NE 17:56:49 14° SE
IRS-1A Rocket 4.4 17:46:36 10° SE 17:51:52 50° ENE 17:57:12 10° N
Cosmos 1300 2.6 17:48:50 10° S 17:52:35 62° E 17:56:23 10° NNE
Cosmos 1939 Rocket 2.8 17:49:25 11° SSE 17:53:13 63° ENE 17:57:16 10° N
Cosmos 2100 Rocket 4.0 17:49:36 10° N 17:55:42 56° ENE 18:01:43 10° SSE
Shenzhou-11 Module 3.6 17:53:35 10° WSW 17:55:53 23° SSW 17:56:17 22° S
CZ-2D R/B 3.1 17:52:35 10° SSE 17:56:26 77° ENE 18:00:19 10° N
Abrixas rocket 2.6 17:54:20 10° W 17:57:18 46° N 17:57:37 44° N
Cosmos 1937 Rocket 4.2 17:54:22 10° N 17:59:00 32° ENE 17:59:13 32° ENE
Cosmos 990 Rocket 4.4 17:54:40 10° N 17:59:36 41° ENE 18:00:41 37° E
ADEOS Rocket 4.0 17:58:51 10° NNE 18:05:32 33° E 18:11:43 10° SSE
NOSS 3-2 (C) 3.3 18:00:00 10° SSW 18:05:38 62° ESE 18:09:35 23° NE
Cosmos 2082 Rocket 2.3 18:00:15 10° NNW 18:05:59 79° WSW 18:11:38 10° SSE
BREEZE-M DEB (TANK) 4.2 18:02:25 10° WNW 18:07:17 81° SSW 18:18:49 18° SE
Cosmos 2016 Rocket 4.1 18:06:57 10° N 18:13:03 50° ENE 18:15:25 34° SE
Unknown 3.8 18:16:00 10° WNW 18:19:12 49° SW 18:19:12 49° SW
Meteor 2-1 Rocket 4.0 18:18:02 10° S 18:23:33 82° E 18:29:09 10° NNE
Cosmos 1763 Rocket 4.2 18:19:17 10° S 18:22:48 38° SSE 18:22:48 38° SSE
CZ-4 R/B 3.9 18:21:01 10° SSW 18:24:25 24° W 18:27:51 10° NW
SPOT 3 Rocket 4.1 18:26:38 40° NE 18:26:38 40° NE 18:30:35 10° N
Lacrosse 5 2.4 18:20:48 10° NW 18:25:45 56° SW 18:27:30 36° S
SJ 16-02 2.4 18:23:00 10° N 18:25:45 33° NNE 18:25:45 33° NNE
FALCON 9 DEB 4.2 18:25:09 10° WNW 18:27:59 45° WSW 18:27:59 45° WSW
In-Cosmos 22 Rocket 4.0 18:24:07 10° N 18:29:34 90° N 18:32:45 27° S
ATLAS CENTAUR R/B 3.9 18:29:14 10° N 18:30:12 12° NNE 18:30:12 12° NNE
ATLAS 3B R/B 2.5 18:26:37 10° SSW 18:33:16 66° ESE 18:35:04 48° ENE
Cosmos 2084 Rocket 4.0 18:31:20 10° NW 18:35:39 55° WSW 18:36:06 52° SSW
CENTAUR R/B 2.3 18:35:04 10° SSW 18:40:58 76° ESE 18:42:36 52° NE
H-2A R/B 2.8 18:42:58 41° NNE 18:42:58 41° NNE 18:46:46 10° N
Cosmos 1459 Rocket 4.2 18:39:08 10° NNW 18:45:20 68° W 18:51:35 10° S
Cosmos 2278 Rocket 4.2 18:41:28 10° WSW 18:46:11 26° NW 18:50:56 10° N
Cosmos 2061 Rocket 3.9 18:40:46 10° N 18:47:02 88° W 18:49:20 42° S
Cosmos 1898 Rocket 3.6 18:44:15 10° NNW 18:49:31 72° WSW 18:50:02 67° SSW
Cosmos 2297 4.0 18:43:54 10° SW 18:49:33 66° WNW 18:53:21 22° NNE
ARGOS 4.0 19:05:13 40° N 19:05:13 40° N 19:08:40 10° N
Cosmos 44 4.4 19:05:34 10° WSW 19:09:47 41° WNW 19:09:47 41° WNW
Cosmos 2123 Rocket 4.3 19:18:50 10° SSW 19:25:03 63° W 19:31:17 10° N
ADEOS Rocket 3.9 19:43:53 10° N 19:51:19 56° WNW 19:58:11 10° SW
ATLAS 3B R/B 4.2 20:18:25 10° W 20:22:24 28° WNW 20:22:24 28° WNW
CENTAUR R/B 4.5 20:26:51 10° W 20:29:52 24° WNW 20:29:52 24° WNW
